FW2126 Weather Reports


time (UTC)temp
C
wind
direction
speed
KPH
gust
KPH
rain 1hr
cm
rain 24hr
cm
rain mn
cm
humidity
%
barometer
mb
20260505124514 10 11 25.7 37.0 0.00 0.00 0.00 58 1004.9
20260505123008 10 11 29.0 41.8 0.00 0.00 0.00 58 1004.4
20260505121506 10 11 24.1 40.2 0.00 0.00 0.00 58 1004.3
20260505120004 10 10 27.4 38.6 0.00 0.00 0.00 58 1003.8
20260505114503 10 11 25.7 37.0 0.00 0.00 0.00 58 1003.7
20260505113107 10 10 32.2 45.1 0.00 0.00 0.00 58 1003.4
20260505111558 10 11 32.2 45.1 0.00 0.00 0.00 58 1003.2
20260505110116 10 11 30.6 40.2 0.00 0.00 0.00 58 1003.4
20260505101550 10 9 27.4 43.5 0.00 0.00 0.00 60 1003.1
20260505100048 11 11 32.2 51.5 0.00 0.00 0.00 60 1002.8
20260505094543 11 11 29.0 46.7 0.00 0.00 0.00 61 1002.1
20260505093039 11 9 24.1 37.0 0.00 0.00 0.00 63 1002.0
20260505091537 12 11 25.7 43.5 0.00 0.00 0.00 64 1001.6
20260505090037 12 9 29.0 40.2 0.00 0.00 0.00 64 1000.8
20260505084529 12 10 25.7 43.5 0.00 0.00 0.00 65 1000.6
20260505083024 13 11 27.4 43.5 0.00 0.00 0.00 63 1000.4
20260505081529 13 13 25.7 35.4 0.00 0.00 0.00 59 999.9
20260505080019 15 11 25.7 41.8 0.00 0.00 0.00 54 999.9
20260505074512 16 11 19.3 37.0 0.00 0.00 0.00 40 999.9
20260505073010 17 26 24.1 32.2 0.00 0.00 0.00 32 999.5
20260505071515 17 26 25.7 35.4 0.00 0.00 0.00 28 999.2
20260505070005 17 26 22.5 37.0 0.00 0.00 0.00 27 999.1
20260505064503 17 27 22.5 40.2 0.00 0.00 0.00 27 998.9
20260505063100 18 27 19.3 25.7 0.00 0.00 0.00 26 998.6
20260505061602 18 30 19.3 25.7 0.00 0.00 0.00 25 998.5
20260505060058 19 29 19.3 29.0 0.00 0.00 0.00 24 998.4
20260505054559 20 28 22.5 33.8 0.00 0.00 0.00 22 998.4
20260505053103 20 28 24.1 33.8 0.00 0.00 0.00 22 998.5
20260505051551 18 24 20.9 27.4 0.00 0.00 0.00 25 998.5
20260505041549 18 26 16.1 19.3 0.00 0.00 0.00 27 998.4
20260505040046 17 25 16.1 20.9 0.00 0.00 0.00 27 998.6
20260505034545 19 23 19.3 27.4 0.00 0.00 0.00 25 998.5
20260505033047 20 23 19.3 27.4 0.00 0.00 0.00 23 998.5
20260505031544 18 19 12.9 17.7 0.00 0.00 0.00 26 998.3
20260505030043 17 19 8.0 12.9 0.00 0.00 0.00 29 998.0
20260505024544 18 19 11.3 14.5 0.00 0.00 0.00 29 997.8
20260505023042 18 19 9.7 14.5 0.00 0.00 0.00 30 997.8
20260505021540 19 360 8.0 12.9 0.00 0.00 0.00 28 997.7
20260505020041 20 15 12.9 16.1 0.00 0.00 0.00 27 997.6
20260505014540 21 14 9.7 12.9 0.00 0.00 0.00 26 997.6
20260505013039 22 14 9.7 12.9 0.00 0.00 0.00 23 997.6
20260505011549 24 14 12.9 17.7 0.00 0.00 0.00 21 997.7
20260505010039 25 15 16.1 22.5 0.00 0.00 0.00 19 997.6
20260505004536 26 18 19.3 27.4 0.00 0.00 0.00 20 997.7
20260505003033 27 17 24.1 32.2 0.00 0.00 0.00 20 997.8
20260505001532 27 17 25.7 33.8 0.00 0.00 0.00 22 998.0
20260505000032 27 20 22.5 37.0 0.00 0.00 0.00 22 998.1
20260504234528 27 224 24.1 32.2 0.00 0.00 0.00 21 998.3
20260504233027 27 244 27.4 37.0 0.00 0.00 0.00 21 998.6
20260504231526 28 245 20.9 32.2 0.00 0.00 0.00 21 998.6
20260504230027 28 262 20.9 27.4 0.00 0.00 0.00 21 998.7
20260504224522 28 267 22.5 40.2 0.00 0.00 0.00 21 999.0
20260504223020 27 215 20.9 38.6 0.00 0.00 0.00 21 998.9
20260504221522 27 202 16.1 25.7 0.00 0.00 0.00 22 999.1
20260504220021 27 243 27.4 40.2 0.00 0.00 0.00 21 999.4
20260504214517 28 267 24.1 48.3 0.00 0.00 0.00 20 999.6
20260504213014 28 255 30.6 45.1 0.00 0.00 0.00 19 999.5
20260504211512 28 246 22.5 41.8 0.00 0.00 0.00 18 999.8
20260504210010 28 271 24.1 45.1 0.00 0.00 0.00 19 1000.0
20260504204508 28 242 25.7 35.4 0.00 0.00 0.00 21 1000.1
20260504203010 27 267 27.4 51.5 0.00 0.00 0.00 22 1000.5
20260504201505 27 291 25.7 49.9 0.00 0.00 0.00 22 1000.8
20260504194600 27 248 37.0 46.7 0.00 0.00 0.00 22 1001.2
20260504193100 27 246 33.8 48.3 0.00 0.00 0.00 23 1001.6
20260504191600 27 229 32.2 51.5 0.00 0.00 0.00 23 1001.6
20260504190109 27 275 27.4 43.5 0.00 0.00 0.00 24 1001.6
20260504184614 26 255 33.8 48.3 0.00 0.00 0.00 24 1001.7
20260504183054 26 267 30.6 51.5 0.00 0.00 0.00 24 1001.9
20260504181552 26 279 29.0 57.9 0.00 0.00 0.00 24 1002.1
20260504180051 26 250 33.8 53.1 0.00 0.00 0.00 24 1002.5
20260504174548 27 260 27.4 46.7 0.00 0.00 0.00 24 1002.6
20260504173049 27 286 29.0 45.1 0.00 0.00 0.00 24 1002.9
20260504171544 26 263 33.8 46.7 0.00 0.00 0.00 23 1003.0